| time (UTC) | temp C | wind direction | speed KPH | gust KPH | rain 1hr cm | rain 24hr cm | rain mn cm | humidity % | barometer mb |
| 20260510201525 | 17 | 314 | 6.4 | 17.7 | 0.00 | 0.00 | 0.00 | 57 | 1017.8 |
| 20260510200023 | 18 | 271 | 12.9 | 24.1 | 0.00 | 0.00 | 0.00 | 52 | 1017.6 |
| 20260510194525 | 19 | 231 | 12.9 | 22.5 | 0.00 | 0.00 | 0.00 | 52 | 1017.5 |
| 20260510193019 | 18 | 241 | 17.7 | 29.0 | 0.00 | 0.00 | 0.00 | 54 | 1017.6 |
| 20260510191511 | 19 | 245 | 16.1 | 27.4 | 0.00 | 0.00 | 0.00 | 50 | 1017.6 |
| 20260510190055 | 20 | 360 | 17.7 | 29.0 | 0.00 | 0.00 | 0.00 | 51 | 1017.6 |
| 20260510184552 | 20 | 246 | 16.1 | 22.5 | 0.00 | 0.00 | 0.00 | 52 | 1017.6 |
| 20260510183041 | 20 | 205 | 16.1 | 24.1 | 0.00 | 0.00 | 0.00 | 47 | 1017.7 |
| 20260510181533 | 20 | 360 | 22.5 | 35.4 | 0.00 | 0.00 | 0.00 | 52 | 1017.6 |
| 20260510180025 | 20 | 360 | 9.7 | 20.9 | 0.00 | 0.00 | 0.00 | 54 | 1017.7 |
| 20260510174521 | 19 | 249 | 12.9 | 29.0 | 0.00 | 0.00 | 0.00 | 52 | 1018.1 |
| 20260510173015 | 18 | 300 | 4.8 | 17.7 | 0.00 | 0.00 | 0.00 | 55 | 1018.4 |
| 20260510171509 | 18 | 317 | 3.2 | 20.9 | 0.00 | 0.00 | 0.00 | 58 | 1018.5 |
| 20260510170050 | 18 | 360 | 14.5 | 22.5 | 0.00 | 0.00 | 0.00 | 54 | 1018.5 |
| 20260510164553 | 18 | 267 | 8.0 | 17.7 | 0.00 | 0.00 | 0.00 | 55 | 1018.7 |
| 20260510163038 | 18 | 232 | 12.9 | 24.1 | 0.00 | 0.00 | 0.00 | 53 | 1018.7 |
| 20260510161630 | 18 | 313 | 1.6 | 19.3 | 0.00 | 0.00 | 0.00 | 56 | 1018.7 |
| 20260510160032 | 18 | 30 | 3.2 | 14.5 | 0.00 | 0.00 | 0.00 | 52 | 1018.7 |
| 20260510154516 | 18 | 79 | 6.4 | 20.9 | 0.00 | 0.00 | 0.00 | 54 | 1018.7 |
| 20260510153006 | 17 | 273 | 3.2 | 19.3 | 0.00 | 0.00 | 0.00 | 55 | 1018.7 |
| 20260510151700 | 17 | 332 | 8.0 | 22.5 | 0.00 | 0.00 | 0.00 | 56 | 1018.8 |
| 20260510150046 | 17 | 311 | 4.8 | 29.0 | 0.00 | 0.00 | 0.00 | 61 | 1018.8 |
| 20260510144534 | 16 | 218 | 11.3 | 19.3 | 0.00 | 0.00 | 0.00 | 64 | 1018.7 |
| 20260510143021 | 16 | 204 | 8.0 | 22.5 | 0.00 | 0.00 | 0.00 | 66 | 1018.7 |
| 20260510141516 | 16 | 257 | 11.3 | 29.0 | 0.00 | 0.00 | 0.00 | 63 | 1018.6 |
| 20260510140110 | 15 | 360 | 14.5 | 24.1 | 0.00 | 0.00 | 0.00 | 69 | 1018.6 |
| 20260510134502 | 16 | 260 | 6.4 | 20.9 | 0.00 | 0.00 | 0.00 | 61 | 1018.6 |
| 20260510133054 | 15 | 269 | 16.1 | 27.4 | 0.00 | 0.00 | 0.00 | 62 | 1018.6 |
| 20260510131546 | 15 | 268 | 16.1 | 33.8 | 0.00 | 0.00 | 0.00 | 62 | 1018.6 |
| 20260510130026 | 14 | 259 | 11.3 | 22.5 | 0.00 | 0.00 | 0.00 | 65 | 1018.6 |
| 20260510124512 | 13 | 204 | 9.7 | 17.7 | 0.00 | 0.00 | 0.00 | 69 | 1018.7 |
| 20260510123005 | 12 | 223 | 8.0 | 22.5 | 0.00 | 0.00 | 0.00 | 74 | 1018.7 |
| 20260510121557 | 10 | 155 | 3.2 | 11.3 | 0.00 | 0.00 | 0.00 | 87 | 1018.5 |
| 20260510120043 | 8 | 193 | 1.6 | 9.7 | 0.00 | 0.00 | 0.00 | 94 | 1018.2 |
| 20260510114559 | 5 | 55 | 0.0 | 4.8 | 0.00 | 0.00 | 0.00 | 96 | 1018.1 |
| 20260510113033 | 3 | 55 | 0.0 | 3.2 | 0.00 | 0.00 | 0.00 | 96 | 1018.1 |
| 20260510111513 | 2 | 5 | 1.6 | 4.8 | 0.00 | 0.00 | 0.00 | 95 | 1018.1 |
| 20260510104556 | 0 | 360 | 0.0 | 4.8 | 0.00 | 0.00 | 0.00 | 93 | 1017.5 |
| 20260510103040 | 0 | 360 | 0.0 | 8.0 | 0.00 | 0.00 | 0.00 | 93 | 1017.2 |
| 20260510101531 | 0 | 360 | 0.0 | 4.8 | 0.00 | 0.00 | 0.00 | 92 | 1017.0 |
| 20260510100126 | 0 | 360 | 1.6 | 6.4 | 0.00 | 0.00 | 0.00 | 93 | 1017.0 |
| 20260510094524 | 0 | 360 | 0.0 | 8.0 | 0.00 | 0.00 | 0.00 | 91 | 1016.9 |
| 20260510093009 | 1 | 360 | 0.0 | 3.2 | 0.00 | 0.00 | 0.00 | 91 | 1017.0 |
| 20260510091500 | 1 | 360 | 0.0 | 1.6 | 0.00 | 0.00 | 0.00 | 92 | 1016.9 |
| 20260510090054 | 1 | 360 | 0.0 | 3.2 | 0.00 | 0.00 | 0.00 | 92 | 1016.7 |
| 20260510084534 | 1 | 360 | 0.0 | 1.6 | 0.00 | 0.00 | 0.00 | 91 | 1016.5 |
| 20260510083026 | 1 | 360 | 0.0 | 1.6 | 0.00 | 0.00 | 0.00 | 91 | 1016.5 |
| 20260510081519 | 1 | 360 | 0.0 | 6.4 | 0.00 | 0.00 | 0.00 | 91 | 1016.3 |
| 20260510080009 | 2 | 360 | 1.6 | 4.8 | 0.00 | 0.00 | 0.00 | 92 | 1016.2 |
| 20260510074607 | 2 | 360 | 3.2 | 6.4 | 0.00 | 0.00 | 0.00 | 91 | 1016.1 |
| 20260510073050 | 2 | 360 | 0.0 | 4.8 | 0.00 | 0.00 | 0.00 | 92 | 1016.0 |
| 20260510071543 | 2 | 360 | 0.0 | 8.0 | 0.00 | 0.00 | 0.00 | 93 | 1015.9 |
| 20260510070038 | 2 | 360 | 0.0 | 1.6 | 0.00 | 0.00 | 0.00 | 90 | 1015.7 |
| 20260510064509 | 2 | 360 | 0.0 | 4.8 | 0.00 | 0.00 | 0.00 | 91 | 1015.6 |
| 20260510063004 | 3 | 360 | 0.0 | 9.7 | 0.00 | 0.00 | 0.00 | 92 | 1015.7 |
| 20260510061545 | 2 | 360 | 0.0 | 0.0 | 0.00 | 0.00 | 0.00 | 91 | 1015.7 |
| 20260510060041 | 3 | 360 | 0.0 | 0.0 | 0.00 | 0.00 | 0.00 | 92 | 1015.7 |
| 20260510054533 | 2 | 360 | 1.6 | 8.0 | 0.00 | 0.00 | 0.00 | 92 | 1015.6 |
| 20260510053024 | 3 | 360 | 1.6 | 8.0 | 0.00 | 0.00 | 0.00 | 89 | 1015.4 |
| 20260510051523 | 3 | 360 | 1.6 | 6.4 | 0.00 | 0.00 | 0.00 | 89 | 1015.5 |
| 20260510050019 | 3 | 360 | 1.6 | 6.4 | 0.00 | 0.00 | 0.00 | 90 | 1015.6 |
| 20260510044613 | 4 | 360 | 0.0 | 4.8 | 0.00 | 0.00 | 0.00 | 90 | 1015.5 |
| 20260510043009 | 4 | 360 | 0.0 | 3.2 | 0.00 | 0.00 | 0.00 | 88 | 1015.5 |
| 20260510041555 | 5 | 182 | 1.6 | 6.4 | 0.00 | 0.00 | 0.00 | 89 | 1015.4 |
| 20260510040041 | 5 | 178 | 0.0 | 4.8 | 0.00 | 0.00 | 0.00 | 88 | 1015.6 |
| 20260510034534 | 5 | 177 | 0.0 | 4.8 | 0.00 | 0.00 | 0.00 | 87 | 1015.5 |
| 20260510033026 | 5 | 194 | 0.0 | 4.8 | 0.00 | 0.00 | 0.00 | 88 | 1015.4 |
| 20260510031528 | 6 | 210 | 0.0 | 4.8 | 0.00 | 0.00 | 0.00 | 86 | 1015.4 |
| 20260510030022 | 6 | 210 | 0.0 | 1.6 | 0.00 | 0.00 | 0.00 | 84 | 1015.2 |
| 20260510024518 | 7 | 210 | 0.0 | 0.0 | 0.00 | 0.00 | 0.00 | 85 | 1015.1 |
| 20260510023009 | 7 | 210 | 0.0 | 1.6 | 0.00 | 0.00 | 0.00 | 85 | 1015.2 |
| 20260510021544 | 7 | 210 | 0.0 | 3.2 | 0.00 | 0.00 | 0.00 | 85 | 1015.2 |
| 20260510020038 | 7 | 210 | 0.0 | 1.6 | 0.00 | 0.00 | 0.00 | 86 | 1015.0 |
| 20260510014511 | 7 | 210 | 1.6 | 3.2 | 0.00 | 0.00 | 0.00 | 86 | 1014.5 |
| 20260510013002 | 7 | 210 | 1.6 | 9.7 | 0.00 | 0.00 | 0.00 | 83 | 1014.3 |
| 20260510011541 | 8 | 215 | 6.4 | 8.0 | 0.00 | 0.00 | 0.00 | 83 | 1014.1 |
| 20260510010034 | 8 | 218 | 3.2 | 8.0 | 0.00 | 0.00 | 0.00 | 80 | 1013.6 |
| 20260510004616 | 10 | 227 | 6.4 | 9.7 | 0.00 | 0.00 | 0.00 | 74 | 1013.6 |
| 20260510003010 | 11 | 243 | 6.4 | 11.3 | 0.00 | 0.00 | 0.00 | 70 | 1013.2 |
| 20260510001603 | 12 | 251 | 6.4 | 14.5 | 0.00 | 0.00 | 0.00 | 68 | 1013.2 |
| 20260510000059 | 13 | 258 | 9.7 | 14.5 | 0.00 | 0.00 | 0.00 | 65 | 1013.2 |
| 20260509234605 | 15 | 250 | 9.7 | 17.7 | 0.00 | 0.00 | 0.00 | 61 | 1013.0 |
| 20260509233044 | 16 | 242 | 9.7 | 19.3 | 0.00 | 0.00 | 0.00 | 59 | 1012.7 |
| 20260509231539 | 16 | 287 | 1.6 | 12.9 | 0.00 | 0.00 | 0.00 | 58 | 1012.7 |
| 20260509230032 | 16 | 355 | 3.2 | 12.9 | 0.00 | 0.00 | 0.00 | 54 | 1012.5 |
| 20260509224512 | 17 | 46 | 4.8 | 12.9 | 0.00 | 0.00 | 0.00 | 54 | 1012.8 |
| 20260509223006 | 16 | 324 | 3.2 | 19.3 | 0.00 | 0.00 | 0.00 | 55 | 1012.6 |
| 20260509214547 | 17 | 287 | 9.7 | 19.3 | 0.00 | 0.00 | 0.00 | 52 | 1012.7 |
| 20260509213042 | 17 | 302 | 4.8 | 22.5 | 0.00 | 0.00 | 0.00 | 55 | 1012.5 |
| 20260509211531 | 17 | 360 | 19.3 | 37.0 | 0.00 | 0.00 | 0.00 | 57 | 1012.4 |
| 20260509210024 | 16 | 209 | 24.1 | 33.8 | 0.00 | 0.00 | 0.00 | 59 | 1012.3 |
| 20260509204523 | 16 | 360 | 24.1 | 33.8 | 0.00 | 0.00 | 0.00 | 60 | 1012.2 |
| 20260509203006 | 16 | 360 | 20.9 | 35.4 | 0.00 | 0.00 | 0.00 | 60 | 1012.3 |